Satellite-Ground Cal/Val Site Overpasses Predictions

Prediction of Satellite NPP Overpassing Cal/Val Site: Antarctic Dome C

Ground Cal/Val Site Location: Latitude: -75.10, Longitude: 123.35; Satellite-Ground Site NADIR distance within 100 km.

Table of predicted overpasses for the next 14.0 days since TLE Epoch: 4/20/2017
Interval Starting Time Ending Time Minimum Distance Time Minimum Distance (km)
1 04/21/2017 07:37:28 04/21/2017 07:37:56 04/21/2017 07:37:42 34.27
2 04/22/2017 07:18:44 04/22/2017 07:19:02 04/22/2017 07:18:53 75.79
3 04/24/2017 15:00:58 04/24/2017 15:01:22 04/24/2017 15:01:10 57.46
4 04/25/2017 14:42:08 04/25/2017 14:42:33 04/25/2017 14:42:21 51.72
5 04/26/2017 07:43:49 04/26/2017 07:44:10 04/26/2017 07:44:00 69.63
6 04/27/2017 07:24:58 04/27/2017 07:25:25 04/27/2017 07:25:11 38.33
7 04/29/2017 15:07:24 04/29/2017 15:07:33 04/29/2017 15:07:28 95.25
8 04/30/2017 14:48:24 04/30/2017 14:48:53 04/30/2017 14:48:38 15.94


NCC Satellite Cal/Val Overpasses Prediction Service
